Flag for U.S.A. Weather past 2 weeks in Frankfort, Kentucky, U.S.A.

Now
32 °F

Sunny.


Feels Like: 24 °F
Forecast: 20 / 36 °F
Wind: 9 mph from North

Location: Capital City Airport

Current Time: Jan 30, 2015 at 6:33:28 PM

Latest Report: Jan 30, 2015 at 5:53 PM


Visibility: 10 mi

Pressure: 30.45 "Hg

Humidity: 45%

Dew point: 13 °F

Location of FrankfortLocation

Historic Weather in Frankfort — Graph

°F

Frankfort temperature yesterday

Maximum temperature yesterday: 53 °F (at 12:53 PM)
Minimum temperature yesterday: 33 °F (at 12:53 AM)
Average temperature yesterday: 40 °F

Past Weeks' High & Low Weather Summary

 TemperatureHumidityPressure
High55 °F (Jan 20, 2:53 PM)97% (Jan 25, 8:53 PM)30.47 "Hg (Jan 25, 8:53 PM)
Low14 °F (Jan 28, 3:53 AM)34% (Jan 19, 2:53 PM)29.62 "Hg (Jan 25, 3:53 PM)
Average35 °F71%30.05 "Hg
* Reported Jan 15 4:53 PM — Jan 30 4:53 PM, Frankfort, Weather by CustomWeather, © 2014

Note: Actual official high and low records may vary slightly from our data, if they occured in-between our weather recording intervals... More about our weather records

Advertising

Frankfort weather history for previous 24 hours

 ConditionsComfort  
Time TempWeatherWind HumidityBarometerVisibility
4:53 PM
Jan 30
36 °FSunny.9 mph38%30.43 "Hg10 mi
3:53 PM36 °FSunny.No wind37%30.43 "Hg10 mi
2:53 PM36 °FSunny.10 mph40%30.42 "Hg10 mi
1:53 PM35 °FPassing clouds.8 mph44%30.44 "Hg10 mi
12:53 PM34 °FPartly sunny.12 mph46%30.46 "Hg10 mi
11:53 AM33 °FPassing clouds.14 mph48%30.47 "Hg10 mi
10:53 AM33 °FPartly sunny.15 mph54%30.45 "Hg10 mi
9:53 AM33 °FMostly cloudy.13 mph63%30.42 "Hg10 mi
9:03 AM32 °FLight snow. Overcast.14 mph69%30.37 "Hg5 mi
8:53 AM33 °FLight snow. Overcast.12 mph66%30.39 "Hg6 mi
7:53 AM33 °FMore clouds than sun.5 mph63%30.36 "Hg10 mi
6:53 AM33 °FOvercast.7 mph61%30.34 "Hg10 mi
5:53 AM34 °FOvercast.7 mph64%30.31 "Hg10 mi
4:53 AM33 °FMostly cloudy.6 mph78%30.30 "Hg10 mi
3:53 AM34 °FOvercast.6 mph73%30.28 "Hg10 mi
2:53 AM33 °FMostly cloudy.8 mph82%30.26 "Hg10 mi
1:53 AM34 °FOvercast.6 mph79%30.25 "Hg10 mi
12:53 AM33 °FOvercast.6 mph85%30.24 "Hg10 mi
11:53 PM
Jan 29
34 °FOvercast.7 mph82%30.24 "Hg9 mi
10:53 PM33 °FOvercast.8 mph88%30.23 "Hg7 mi
9:53 PM35 °FOvercast.6 mph78%30.21 "Hg7 mi
8:53 PM35 °FMostly cloudy.10 mph82%30.18 "Hg9 mi
7:53 PM36 °FOvercast.10 mph82%30.15 "Hg9 mi
6:53 PM36 °FFog.8 mph85%30.13 "Hg6 mi
Weather by CustomWeather, © 2014

See weather overviewHow to use our weather pages